�N����,����,�~����,�C��,���x,�C��,����,���ϕ���,�ő�u�ԕ���,�ő厞����,���˗�,�I�_���x,�n�����x,�ő啗���N��,DTYPE
"18/11/03","00:10",0.0,8.4,90.9,1020.6,264.3,0.5,1.6,283.9,0.00,7.0,13.5,"00:00:08",1
"18/11/03","00:20",0.0,8.1,91.0,1020.6,311.2,2.1,3.5,331.7,0.00,6.8,13.3,"00:15:20",1
"18/11/03","00:30",0.0,8.3,92.2,1020.6,318.4,1.8,3.2,324.8,0.00,7.1,13.5,"00:28:40",1
"18/11/03","00:40",0.0,7.9,92.0,1020.6,300.3,1.2,2.1,310.7,0.00,6.7,13.2,"00:30:40",1
"18/11/03","00:50",0.0,7.6,92.5,1020.8,235.4,0.6,1.8,296.4,0.00,6.5,13.2,"00:40:02",1
"18/11/03","01:00",0.0,7.7,93.6,1020.6,285.3,1.3,2.0,319.9,0.00,6.8,13.2,"00:52:32",1
"18/11/03","01:10",0.0,8.7,94.8,1020.4,317.6,2.3,4.2,325.6,0.00,8.0,13.2,"01:05:28",1
"18/11/03","01:20",0.0,9.2,93.4,1020.6,325.8,2.5,3.6,323.6,0.00,8.2,13.2,"01:19:20",1
"18/11/03","01:30",0.0,9.2,93.5,1020.8,321.7,3.0,3.9,327.4,0.00,8.2,13.2,"01:24:00",1
"18/11/03","01:40",0.0,9.5,93.1,1020.4,324.0,2.7,4.2,333.2,0.00,8.5,12.9,"01:31:04",1
"18/11/03","01:50",0.0,9.7,92.6,1020.6,326.1,3.0,4.7,309.2,0.00,8.6,13.1,"01:42:32",1
"18/11/03","02:00",0.0,9.7,92.3,1020.6,328.1,2.2,4.1,323.8,0.00,8.6,13.1,"01:53:52",1
"18/11/03","02:10",0.0,9.7,92.4,1020.4,327.6,3.1,5.4,346.0,0.00,8.6,13.0,"02:09:04",1
"18/11/03","02:20",0.0,10.0,91.9,1020.4,326.8,3.6,6.7,344.6,0.00,8.8,13.2,"02:16:16",1
"18/11/03","02:30",0.0,9.9,91.3,1020.4,316.4,2.7,4.3,325.4,0.00,8.6,12.9,"02:22:16",1
"18/11/03","02:40",0.0,10.0,90.9,1020.1,327.1,3.5,5.2,339.4,0.00,8.6,13.1,"02:35:36",1
"18/11/03","02:50",0.0,9.9,90.5,1020.4,324.5,3.1,4.4,315.1,0.00,8.5,13.0,"02:40:08",1
"18/11/03","03:00",0.0,9.7,90.5,1020.6,319.8,0.7,2.0,317.6,0.00,8.3,13.0,"02:59:38",1
"18/11/03","03:10",0.0,9.4,90.7,1020.6,308.7,0.8,2.7,319.1,0.00,8.0,13.0,"03:01:44",1
"18/11/03","03:20",0.0,9.1,91.2,1020.6,303.1,1.7,2.5,322.2,0.00,7.8,13.1,"03:14:48",1
"18/11/03","03:30",0.0,8.9,91.8,1020.6,294.4,1.5,2.4,319.9,0.00,7.7,12.8,"03:20:02",1
"18/11/03","03:40",0.0,8.8,92.3,1020.4,310.4,1.0,2.2,314.5,0.00,7.7,13.0,"03:30:08",1
"18/11/03","03:50",0.0,8.6,92.1,1020.1,323.4,2.0,2.6,331.8,0.00,7.4,13.1,"03:45:20",1
"18/11/03","04:00",0.0,8.5,93.7,1020.4,289.6,1.0,2.4,309.8,0.00,7.6,12.9,"03:59:44",1
"18/11/03","04:10",0.0,8.6,93.8,1020.4,281.9,1.3,2.0,279.2,0.00,7.7,12.9,"04:01:04",1
"18/11/03","04:20",0.0,8.6,93.9,1020.6,300.9,1.2,2.1,312.7,0.00,7.7,12.8,"04:15:44",1
"18/11/03","04:30",0.0,8.7,94.3,1020.4,309.8,1.7,2.5,320.3,0.00,7.9,12.7,"04:24:08",1
"18/11/03","04:40",0.0,8.8,94.5,1020.4,297.9,1.6,2.0,319.9,0.00,8.0,12.8,"04:32:48",1
"18/11/03","04:50",0.0,9.1,94.2,1020.4,321.7,2.5,3.4,337.0,0.00,8.3,12.9,"04:46:08",1
"18/11/03","05:00",0.0,9.2,94.5,1020.4,324.5,2.5,3.9,334.8,0.00,8.4,13.1,"04:57:36",1
"18/11/03","05:10",0.0,9.5,94.3,1020.4,307.8,2.2,4.2,340.4,0.00,8.7,12.7,"05:09:12",1
"18/11/03","05:20",0.0,9.6,93.8,1020.6,323.6,2.3,3.7,314.3,0.00,8.7,12.9,"05:13:28",1
"18/11/03","05:30",0.0,9.6,93.2,1020.8,336.7,1.7,3.1,323.5,0.00,8.6,12.9,"05:20:16",1
"18/11/03","05:40",0.0,9.5,93.2,1020.8,324.6,1.0,2.5,344.7,0.00,8.5,13.1,"05:32:56",1
"18/11/03","05:50",0.0,9.5,92.9,1020.8,334.3,2.0,2.6,0.5,0.00,8.4,13.0,"05:45:44",1
"18/11/03","06:00",0.0,9.5,92.9,1021.1,302.0,1.7,3.2,303.5,0.00,8.4,13.0,"05:50:08",1
"18/11/03","06:10",0.0,9.6,92.9,1020.8,317.2,2.2,3.3,352.6,0.00,8.5,12.9,"06:05:20",1
"18/11/03","06:20",0.0,9.6,92.4,1020.8,303.4,1.8,3.5,315.1,0.00,8.5,12.8,"06:19:36",1
"18/11/03","06:30",0.0,9.6,92.3,1020.6,323.4,3.0,4.5,317.0,0.00,8.5,12.9,"06:27:44",1
"18/11/03","06:40",0.0,9.4,92.1,1020.8,311.3,2.3,4.8,326.8,0.00,8.2,13.0,"06:38:00",1
"18/11/03","06:50",0.0,9.4,92.1,1021.1,323.7,3.4,4.5,332.6,0.00,8.2,12.9,"06:41:20",1
"18/11/03","07:00",0.0,9.4,92.1,1020.8,313.6,3.1,5.1,340.9,0.00,8.2,12.9,"06:55:20",1
"18/11/03","07:10",0.0,9.5,91.9,1020.8,314.2,3.5,5.1,318.9,0.00,8.3,12.8,"07:03:12",1
"18/11/03","07:20",0.0,9.4,92.3,1021.1,299.4,2.5,4.5,321.0,0.00,8.3,12.9,"07:19:20",1
"18/11/03","07:30",0.0,9.6,91.8,1020.8,307.8,2.5,4.2,331.5,0.00,8.4,12.7,"07:21:20",1
"18/11/03","07:40",0.0,9.9,92.3,1020.8,313.2,1.6,2.6,329.5,0.01,8.8,12.9,"07:38:08",1
"18/11/03","07:50",0.0,10.3,91.3,1021.1,308.7,1.7,2.9,320.9,0.02,9.0,13.0,"07:43:52",1
"18/11/03","08:00",0.0,10.5,90.9,1021.5,299.0,1.5,3.5,323.6,0.04,9.1,12.8,"07:54:00",1
"18/11/03","08:10",0.0,10.9,88.8,1021.3,268.1,1.2,1.8,244.9,0.07,9.2,13.0,"08:07:40",1
"18/11/03","08:20",0.0,11.8,86.6,1021.8,273.3,1.3,2.2,233.5,0.10,9.7,13.1,"08:11:04",1
"18/11/03","08:30",0.0,11.6,86.7,1022.0,266.9,1.3,2.5,232.8,0.12,9.5,13.2,"08:29:28",1
"18/11/03","08:40",0.0,12.4,85.2,1022.0,276.8,1.3,2.1,266.0,0.14,10.0,13.1,"08:30:32",1
"18/11/03","08:50",0.0,13.0,82.2,1021.8,280.1,1.5,3.2,326.7,0.17,10.1,13.3,"08:40:02",1
"18/11/03","09:00",0.0,13.3,80.3,1022.3,311.9,1.8,3.5,332.1,0.19,10.0,13.4,"08:58:56",1
"18/11/03","09:10",0.0,13.7,78.1,1022.0,301.2,1.5,2.7,335.2,0.22,10.0,13.6,"09:00:16",1
"18/11/03","09:20",0.0,13.8,77.8,1022.0,275.0,0.8,1.8,311.8,0.25,10.0,13.8,"09:10:08",1
"18/11/03","09:30",0.0,14.1,77.5,1022.0,238.8,0.6,1.8,233.4,0.25,10.3,13.8,"09:25:36",1
"18/11/03","09:40",0.0,14.6,75.3,1021.5,289.4,1.0,2.5,334.3,0.29,10.3,13.9,"09:32:08",1
"18/11/03","09:50",0.0,15.2,73.3,1021.3,251.6,0.6,1.4,244.4,0.32,10.5,14.4,"09:42:40",1
"18/11/03","10:00",0.0,14.8,71.2,1021.1,140.5,0.6,1.2,118.7,0.29,9.7,14.5,"09:55:28",1
"18/11/03","10:10",0.0,15.2,73.0,1021.1,198.8,0.3,0.9,147.0,0.19,10.4,14.8,"10:07:04",1
"18/11/03","10:20",0.0,15.9,70.1,1020.8,206.4,0.7,1.9,200.9,0.38,10.5,15.2,"10:14:48",1
"18/11/03","10:30",0.0,15.9,68.9,1020.6,120.7,0.7,1.7,133.4,0.39,10.2,15.3,"10:21:52",1
"18/11/03","10:40",0.0,16.1,65.9,1020.8,228.9,0.8,2.1,235.3,0.40,9.8,15.6,"10:35:52",1
"18/11/03","10:50",0.0,16.6,64.4,1020.4,145.5,1.0,2.6,105.3,0.42,9.9,15.6,"10:42:16",1
"18/11/03","11:00",0.0,16.9,62.8,1020.4,110.2,0.8,2.2,159.0,0.43,9.8,16.0,"10:59:58",1
"18/11/03","11:10",0.0,17.1,61.6,1019.9,106.2,1.3,2.7,50.2,0.44,9.7,16.2,"11:03:12",1
"18/11/03","11:20",0.0,17.6,56.9,1019.4,202.4,1.2,2.9,216.8,0.45,9.0,16.5,"11:12:34",1
"18/11/03","11:30",0.0,17.8,52.7,1019.4,119.8,1.0,1.9,118.6,0.46,8.1,16.7,"11:26:58",1
"18/11/03","11:40",0.0,18.3,53.0,1019.4,157.4,1.1,2.0,160.1,0.48,8.6,17.2,"11:33:22",1
"18/11/03","11:50",0.0,18.2,52.8,1019.0,278.4,1.2,3.1,222.5,0.48,8.5,17.4,"11:49:20",1
"18/11/03","12:00",0.0,18.8,51.3,1018.5,175.9,1.3,2.7,109.3,0.48,8.6,17.8,"11:52:48",1
"18/11/03","12:10",0.0,18.8,50.6,1018.5,199.0,1.3,2.7,113.3,0.45,8.4,18.0,"12:09:32",1
"18/11/03","12:20",0.0,19.0,47.6,1018.2,102.7,1.5,3.3,114.8,0.48,7.7,18.2,"12:15:28",1
"18/11/03","12:30",0.0,18.7,47.2,1018.2,136.0,1.2,2.9,104.7,0.47,7.3,18.2,"12:23:36",1
"18/11/03","12:40",0.0,18.9,46.4,1018.0,163.3,1.1,2.8,142.3,0.46,7.2,18.4,"12:39:52",1
"18/11/03","12:50",0.0,18.8,47.7,1017.5,125.8,1.3,3.5,114.2,0.46,7.5,18.8,"12:45:36",1
"18/11/03","13:00",0.0,19.1,47.6,1017.5,199.3,1.5,3.4,113.2,0.41,7.8,18.7,"12:51:20",1
"18/11/03","13:10",0.0,19.0,47.8,1017.3,179.2,1.7,3.1,138.1,0.44,7.7,19.0,"13:01:28",1
"18/11/03","13:20",0.0,18.9,46.6,1017.1,267.0,1.5,2.6,298.4,0.43,7.3,19.2,"13:16:24",1
"18/11/03","13:30",0.0,19.1,47.6,1017.1,275.0,0.7,2.0,312.0,0.42,7.8,19.2,"13:27:20",1
"18/11/03","13:40",0.0,19.6,46.5,1016.8,246.9,1.0,2.2,234.5,0.42,7.9,19.4,"13:30:40",1
"18/11/03","13:50",0.0,19.8,46.0,1016.8,259.5,0.7,1.8,125.4,0.42,7.9,19.4,"13:40:56",1
"18/11/03","14:00",0.0,19.5,46.5,1016.1,140.3,1.3,3.9,112.8,0.39,7.8,19.7,"13:58:40",1
"18/11/03","14:10",0.0,19.6,47.0,1016.4,141.7,1.1,3.2,109.6,0.35,8.0,19.8,"14:05:12",1
"18/11/03","14:20",0.0,19.8,45.7,1016.1,248.3,1.1,3.2,234.8,0.35,7.8,19.8,"14:16:08",1
"18/11/03","14:30",0.0,19.9,46.4,1015.9,233.7,1.1,2.8,236.1,0.33,8.1,19.8,"14:22:40",1
"18/11/03","14:40",0.0,20.2,45.6,1016.1,200.8,0.8,2.4,222.3,0.30,8.1,20.1,"14:34:24",1
"18/11/03","14:50",0.0,20.1,43.9,1016.1,182.9,1.6,3.4,92.6,0.28,7.5,19.9,"14:40:48",1
"18/11/03","15:00",0.0,20.2,45.7,1016.6,219.0,1.6,4.7,216.4,0.27,8.2,19.8,"14:52:24",1
"18/11/03","15:10",0.0,20.3,44.6,1016.4,221.8,1.5,2.6,205.6,0.24,7.9,20.0,"15:04:16",1
"18/11/03","15:20",0.0,19.9,46.0,1016.1,202.6,1.3,3.3,218.5,0.20,8.0,19.7,"15:16:40",1
"18/11/03","15:30",0.0,19.7,46.1,1016.4,165.6,1.3,2.8,197.2,0.18,7.8,19.5,"15:26:48",1
"18/11/03","15:40",0.0,19.5,45.1,1016.4,240.3,0.8,2.2,161.0,0.15,7.3,19.6,"15:37:20",1
"18/11/03","15:50",0.0,19.3,47.9,1016.6,141.1,1.3,3.3,134.1,0.12,8.0,19.6,"15:42:16",1
"18/11/03","16:00",0.0,19.2,46.1,1016.6,139.5,0.7,1.9,151.5,0.09,7.4,19.6,"15:54:00",1
"18/11/03","16:10",0.0,19.6,45.9,1016.8,230.1,0.7,2.4,218.8,0.07,7.7,19.5,"16:03:52",1
"18/11/03","16:20",0.0,19.4,45.6,1016.8,192.6,0.7,1.7,104.5,0.05,7.4,19.3,"16:18:32",1
"18/11/03","16:30",0.0,19.2,47.3,1016.8,278.4,0.6,1.6,252.8,0.03,7.8,19.2,"16:20:02",1
"18/11/03","16:40",0.0,18.5,52.6,1016.8,247.3,1.0,1.8,263.6,0.02,8.7,18.9,"16:30:08",1
"18/11/03","16:50",0.0,17.8,54.5,1016.8,276.8,1.0,1.4,317.0,0.00,8.6,19.0,"16:44:24",1
"18/11/03","17:00",0.0,16.7,59.0,1016.8,292.5,1.0,1.6,307.7,0.00,8.7,18.7,"16:54:56",1
"18/11/03","17:10",0.0,15.9,63.0,1017.1,298.2,1.0,1.7,330.9,0.00,8.9,18.7,"17:00:48",1
"18/11/03","17:20",0.0,15.2,65.3,1017.1,287.5,0.7,1.6,326.2,0.00,8.8,18.4,"17:10:16",1
"18/11/03","17:30",0.0,14.8,67.8,1017.3,279.8,1.0,1.4,260.6,0.00,9.0,18.2,"17:28:00",1
"18/11/03","17:40",0.0,14.5,68.8,1017.3,282.8,1.0,1.8,270.4,0.00,8.9,17.8,"17:31:36",1
"18/11/03","17:50",0.0,14.2,69.9,1017.5,280.8,1.0,1.7,275.0,0.00,8.8,17.7,"17:49:44",1
"18/11/03","18:00",0.0,13.9,71.1,1017.3,277.7,1.1,1.7,265.3,0.00,8.8,17.7,"17:50:16",1
"18/11/03","18:10",0.0,13.7,73.0,1018.0,278.8,1.1,1.9,274.5,0.00,9.0,17.5,"18:08:40",1
"18/11/03","18:20",0.0,13.6,73.6,1017.8,275.6,1.2,2.1,261.9,0.00,9.0,17.3,"18:16:40",1
"18/11/03","18:30",0.0,13.3,74.9,1017.8,312.3,1.2,1.9,337.6,0.00,9.0,17.5,"18:26:58",1
"18/11/03","18:40",0.0,12.8,77.2,1018.0,298.2,1.3,1.7,310.6,0.00,9.0,17.1,"18:35:52",1
"18/11/03","18:50",0.0,12.7,78.7,1018.2,285.6,1.3,1.8,299.4,0.00,9.1,17.1,"18:43:34",1
"18/11/03","19:00",0.0,12.8,78.3,1018.2,305.4,1.5,2.0,280.5,0.00,9.2,16.8,"18:53:22",1
"18/11/03","19:10",0.0,12.4,80.5,1018.2,324.8,1.7,1.9,333.4,0.00,9.2,16.7,"19:00:08",1
"18/11/03","19:20",0.0,11.8,83.0,1018.2,313.6,1.5,2.1,329.4,0.00,9.0,16.6,"19:10:28",1
"18/11/03","19:30",0.0,11.6,84.9,1018.5,291.1,1.2,1.6,304.7,0.00,9.2,16.3,"19:26:14",1
"18/11/03","19:40",0.0,11.8,84.8,1018.2,297.9,1.3,1.7,311.8,0.00,9.4,16.3,"19:30:28",1
"18/11/03","19:50",0.0,11.7,83.7,1018.2,295.7,1.3,1.7,298.3,0.00,9.1,16.2,"19:43:22",1
"18/11/03","20:00",0.0,11.9,84.7,1018.5,305.8,2.1,3.9,327.1,0.00,9.4,16.1,"19:57:12",1
"18/11/03","20:10",0.0,12.0,82.6,1018.2,295.8,2.0,4.1,305.7,0.00,9.2,15.9,"20:01:46",1
"18/11/03","20:20",0.0,11.8,83.6,1018.5,294.3,1.8,3.1,312.3,0.00,9.2,15.8,"20:16:28",1
"18/11/03","20:30",0.0,12.0,82.9,1018.7,309.5,2.3,3.3,311.9,0.00,9.2,15.7,"20:21:44",1
"18/11/03","20:40",0.0,12.0,82.5,1018.5,326.4,2.6,3.3,335.9,0.00,9.2,15.7,"20:33:16",1
"18/11/03","20:50",0.0,12.0,82.5,1018.7,329.4,2.7,3.5,334.2,0.00,9.2,15.7,"20:40:24",1
"18/11/03","21:00",0.0,12.1,82.5,1018.5,329.9,3.0,4.4,315.6,0.00,9.3,15.6,"20:59:22",1
"18/11/03","21:10",0.0,12.0,82.0,1018.5,327.1,2.8,4.2,317.7,0.00,9.1,15.6,"21:00:40",1
"18/11/03","21:20",0.0,12.1,81.7,1018.7,328.7,3.2,5.1,336.0,0.00,9.1,15.3,"21:15:34",1
"18/11/03","21:30",0.0,12.1,81.0,1018.7,331.5,2.7,4.1,341.2,0.00,9.0,15.2,"21:21:42",1
"18/11/03","21:40",0.0,12.0,81.6,1018.2,336.4,2.7,4.4,322.7,0.00,9.0,15.2,"21:37:18",1
"18/11/03","21:50",0.0,12.2,81.2,1018.5,331.6,2.7,4.0,322.0,0.00,9.1,15.2,"21:40:08",1
"18/11/03","22:00",0.0,12.4,79.9,1018.7,318.6,3.0,4.5,328.3,0.00,9.1,15.2,"21:53:50",1
"18/11/03","22:10",0.0,12.2,79.0,1018.5,332.1,2.1,4.2,326.4,0.00,8.7,15.2,"22:01:38",1
"18/11/03","22:20",0.0,11.7,81.4,1018.7,336.0,2.6,4.8,338.3,0.00,8.7,15.0,"22:18:00",1
"18/11/03","22:30",0.0,11.6,82.5,1018.5,335.5,2.5,4.2,334.6,0.00,8.8,15.1,"22:29:48",1
"18/11/03","22:40",0.0,11.4,83.3,1018.7,328.8,2.3,3.7,337.3,0.00,8.7,15.0,"22:34:50",1
"18/11/03","22:50",0.0,11.4,83.3,1018.0,318.9,2.8,4.1,341.6,0.00,8.7,15.0,"22:41:06",1
"18/11/03","23:00",0.0,11.2,84.1,1018.2,305.3,2.1,2.9,309.1,0.00,8.7,14.8,"22:55:28",1
"18/11/03","23:10",0.0,11.2,84.3,1018.2,314.4,2.7,3.7,317.5,0.00,8.7,14.7,"23:06:22",1
"18/11/03","23:20",0.0,10.9,84.8,1018.2,293.7,1.7,3.2,316.5,0.00,8.5,14.8,"23:14:44",1
"18/11/03","23:30",0.0,10.8,85.1,1018.0,302.1,2.0,3.1,323.9,0.00,8.4,14.7,"23:22:32",1
"18/11/03","23:40",0.0,11.0,85.9,1018.0,315.3,2.6,4.1,330.0,0.00,8.8,14.7,"23:35:30",1
"18/11/03","23:50",0.0,10.9,85.6,1017.8,310.3,2.1,3.4,309.4,0.00,8.6,14.6,"23:43:22",1
"18/11/03","24:00",0.0,11.1,85.8,1018.0,311.3,2.6,4.3,337.9,0.00,8.9,14.5,"23:57:30",1
